Poplar Bluff, MO

5:59 PM CST on January 17, 2017 (GMT -0600)
Poplar Bluff Municipal

Weather History for KPOF - June, 2013

Change the Weather History Date:

Friday, June 21, 2013

  Actual Average Record
Temperature  
Mean Temperature 81 °F -  
Max Temperature 93 °F 88 °F 102 °F (1953)
Min Temperature 71 °F 66 °F 55 °F (1940)
Cooling Degree Days 16    
Growing Degree Days 31 (Base 50)    
Moisture  
Dew Point 69 °F    
Average Humidity 66    
Maximum Humidity 91    
Minimum Humidity 42    
Precipitation  
Precipitation 0.00 in - - ()
Sea Level Pressure  
Sea Level Pressure 30.08 in    
Wind  
Wind Speed 4 mph (SSW)    
Max Wind Speed 13 mph    
Max Gust Speed 18 mph    
Visibility 8 miles    
Events      
Averages and records for this station are not official NWS values.
T = Trace of Precipitation, MM = Missing Value Source: NWS Daily Summary

Daily Weather History Graph

Daily Weather History Graph

Search for Another Location

Airport or City:

Trip Planner

Search our weather history database for the weather conditions in past years. The results will help you decide how hot, cold, wet, or windy it might be!

Date:

Astronomy

Jun. 21, 2013 Rise Set
Actual Time 5:42 AM CDT 8:23 PM CDT
Civil Twilight 5:11 AM CDT 8:54 PM CDT
Nautical Twilight 4:33 AM CDT 9:32 PM CDT
Astronomical Twilight 3:50 AM CDT 10:15 PM CDT
Moon 6:36 PM CDT (6/21) 3:56 AM CDT (6/21)
Length of Visible Light 15h 42m
Length of Day
14h 40m
Waxing Gibbous, 95% of the Moon is Illuminated
Jun 21
Waxing Gibbous
Jun 23
Full
Jun 29
Last Quarter
Jul 8
New
Jul 15
First Quarter

Hourly Weather History & Observations

Time (CDT) Temp. Heat Index Dew Point Humidity Pressure Visibility Wind Dir Wind Speed Gust Speed Precip Events Conditions
12:53 AM 75.0 °F - 71.1 °F 87% 30.09 in 7.0 mi Calm Calm - N/A   Clear
1:53 AM 73.9 °F - 70.0 °F 87% 30.09 in 7.0 mi Calm Calm - N/A   Mostly Cloudy
2:53 AM 73.9 °F - 70.0 °F 87% 30.07 in 7.0 mi Calm Calm - N/A   Clear
3:53 AM 72.0 °F - 69.1 °F 91% 30.07 in 5.0 mi Calm Calm - N/A   Clear
4:53 AM 72.0 °F - 69.1 °F 91% 30.07 in 5.0 mi Calm Calm - N/A   Clear
5:53 AM 71.1 °F - 68.0 °F 90% 30.09 in 2.5 mi Calm Calm - N/A   Clear
6:35 AM 73.4 °F - 69.8 °F 88% 30.11 in 3.0 mi Calm Calm - N/A   Clear
6:53 AM 73.0 °F - 70.0 °F 90% 30.10 in 4.0 mi Calm Calm - N/A   Clear
7:53 AM 78.1 °F - 70.0 °F 76% 30.11 in 6.0 mi Calm Calm - N/A   Haze
8:53 AM 82.9 °F 87.0 °F 70.0 °F 65% 30.12 in 10.0 mi South 5.8 mph - N/A   Clear
9:53 AM 84.9 °F 90.1 °F 71.1 °F 63% 30.13 in 9.0 mi SSW 10.4 mph - N/A   Clear
10:53 AM 88.0 °F 92.9 °F 70.0 °F 55% 30.12 in 10.0 mi SSW 10.4 mph - N/A   Clear
11:53 AM 89.1 °F 95.0 °F 71.1 °F 55% 30.12 in 10.0 mi SW 9.2 mph - N/A   Clear
12:53 PM 90.0 °F 94.5 °F 69.1 °F 50% 30.11 in 10.0 mi SSW 10.4 mph 17.3 mph N/A   Partly Cloudy
1:53 PM 91.0 °F 95.2 °F 68.0 °F 47% 30.09 in 10.0 mi SSW 11.5 mph 18.4 mph N/A   Clear
2:53 PM 91.9 °F 95.9 °F 68.0 °F 45% 30.07 in 10.0 mi South 12.7 mph - N/A   Clear
3:53 PM 91.9 °F 94.5 °F 66.0 °F 42% 30.05 in 10.0 mi SW 12.7 mph 18.4 mph N/A   Clear
4:53 PM 91.9 °F 95.9 °F 68.0 °F 45% 30.05 in 10.0 mi South 9.2 mph - N/A   Partly Cloudy
5:53 PM 91.0 °F 93.8 °F 66.0 °F 44% 30.04 in 10.0 mi SW 10.4 mph - N/A   Clear
6:53 PM 89.1 °F 92.1 °F 66.9 °F 48% 30.04 in 10.0 mi South 6.9 mph - N/A   Clear
7:53 PM 87.1 °F 90.6 °F 68.0 °F 53% 30.04 in 10.0 mi South 5.8 mph - N/A   Clear
8:53 PM 82.9 °F 85.8 °F 68.0 °F 60% 30.04 in 10.0 mi South 4.6 mph - N/A   Clear
9:53 PM 82.9 °F 85.8 °F 68.0 °F 60% 30.06 in 10.0 mi South 5.8 mph - N/A   Clear
10:53 PM 82.0 °F 84.9 °F 68.0 °F 62% 30.05 in 10.0 mi South 8.1 mph - N/A   Clear
11:53 PM 80.1 °F 82.7 °F 68.0 °F 67% 30.06 in 10.0 mi SSE 6.9 mph - N/A   Clear